Home   Weather   Weno   Past weeks
Flag for Micronesia

Past Weather in Weno, Chuuk, Micronesia — Yesterday and Last 2 Weeks

Now
82 °F

Mostly cloudy.


Feels Like: 89 °F
Forecast: 87 / 80 °F
Wind: 5 mph from North

Location: Truk Intl / Moen Island

Current Time: Jun 20, 2019 at 9:41:20 pm

Latest Report: Jun 20, 2019 at 8:50 pm


Visibility: 15 mi

Pressure: 29.83 "Hg

Humidity: 87%

Dew Point: 77 °F

Location of WenoLocation

Past Weather in Weno — Graph

°F

Weno Temperature Yesterday

Maximum temperature yesterday: 85 °F (at 12:50 pm)
Minimum temperature yesterday: 79 °F (at 8:50 am)
Average temperature yesterday: 82 °F

High & Low Weather Summary for the Past Weeks

 TemperatureHumidityPressure
High89 °F (Jun 18, 12:50 pm)96% (Jun 11, 5:50 pm)29.88 "Hg (Jun 11, 5:50 pm)
Low77 °F (Jun 14, 5:50 am)62% (Jun 8, 12:51 pm)29.73 "Hg (Jun 14, 3:53 pm)
Average83 °F83%29.81 "Hg
* Reported Jun 5 7:50 pm — Jun 20 7:54 pm, Weno. Weather by CustomWeather, © 2019

Note: Actual official high and low records may vary slightly from our data, if they occured in-between our weather recording intervals... More about our weather records

Advertising

Weno Weather History for the Previous 24 Hours

Scroll right to see more
 ConditionsComfort  
Time TempWeatherWind HumidityBarometerVisibility
7:54 pm
Thu, Jun 20
81 °FMostly cloudy.5 mph88%29.81 "Hg15 mi
6:51 pm81 °FMostly cloudy.8 mph85%29.80 "Hg15 mi
5:54 pm80 °FCloudy.8 mph89%29.79 "Hg15 mi
4:50 pm78 °FSprinkles. More clouds than sun.8 mph94%29.78 "Hg10 mi
3:50 pm81 °FMostly cloudy.5 mph84%29.76 "Hg15 mi
2:50 pm81 °FSprinkles. More clouds than sun.10 mph88%29.78 "Hg12 mi
1:50 pm83 °FMostly cloudy.3 mph83%29.78 "Hg15 mi
12:54 pm83 °FSprinkles. Cloudy.7 mph84%29.79 "Hg14 mi
11:50 am84 °FCloudy.7 mph79%29.79 "Hg15 mi
10:50 am83 °FSprinkles. More clouds than sun.8 mph86%29.81 "Hg10 mi
9:50 am87 °FCloudy.7 mph76%29.81 "Hg15 mi
8:50 am82 °FSprinkles. Cloudy.8 mph84%29.81 "Hg14 mi
7:50 am81 °FRain showers. Mostly cloudy.7 mph86%29.81 "Hg10 mi
6:50 am79 °FSprinkles. Mostly cloudy.8 mph91%29.79 "Hg12 mi
5:50 am79 °FSprinkles. Mostly cloudy.8 mph90%29.78 "Hg10 mi
5:15 am81 °FRain showers. Mostly cloudy.8 mph89%29.76 "Hg10 mi
4:50 am81 °FMostly cloudy.8 mph81%29.75 "Hg14 mi
3:50 am79 °FSprinkles. Mostly cloudy.6 mph87%29.74 "Hg12 mi
2:50 am78 °FMostly cloudy.5 mph92%29.74 "Hg15 mi
1:50 am79 °FMostly cloudy.5 mph91%29.75 "Hg15 mi
12:50 am80 °FMostly cloudy.6 mph86%29.76 "Hg15 mi
11:50 pm
Wed, Jun 19
80 °FMostly cloudy.6 mph86%29.78 "Hg15 mi
10:50 pm82 °FMostly cloudy.6 mph84%29.79 "Hg15 mi
9:50 pm83 °FMostly cloudy.6 mph77%29.80 "Hg15 mi
Weather by CustomWeather, © 2019

See weather overview